Simultaneous Nadir Overpasses (SNOs) Predictions

Prediction of SNOs between LANDSAT-8 and NOAA-19 Satellite Orbit:

Table of predicted SNOs for the next 14.0 days since TLE Epoch: 5/12/2018
Index Date (LANDSAT-8) Time (LANDSAT-8) Lat,Lon (LANDSAT-8) SZA (LANDSAT-8 ) Date (NOAA-19) Time (NOAA-19) Lat,Lon (NOAA-19) SZA (NOAA-19 ) Distance(km) Time Diff (sec)
1 05/12/2018 08:15:22 -77.58,-110.51 120.23 05/12/2018 08:14:20 -77.59,-110.64 120.24 3.45 62
2 05/12/2018 09:04:49 77.53, 56.92 59.70 05/12/2018 09:05:18 77.51, 57.00 59.70 2.41 29
3 05/14/2018 13:49:04 77.57, -13.98 59.22 05/14/2018 13:47:55 77.57, -13.85 59.21 2.94 69
4 05/14/2018 14:38:32 -77.54, 153.52 120.84 05/14/2018 14:38:56 -77.53, 153.57 120.83 1.25 24
5 05/16/2018 19:22:47 -77.58, 82.62 121.30 05/16/2018 19:21:34 -77.61, 82.61 121.29 3.22 73
6 05/16/2018 20:12:13 77.57,-109.78 58.68 05/16/2018 20:12:31 77.54,-109.78 58.66 2.94 18
7 05/19/2018 00:56:23 77.83,-179.73 58.52 05/19/2018 00:55:15 77.88, 177.86 58.41 56.58 68
8 05/19/2018 01:45:56 -77.58, -13.18 121.81 05/19/2018 01:46:10 -77.56, -13.22 121.82 1.94 14
9 05/21/2018 06:30:03 -77.97, -82.54 121.78 05/21/2018 06:28:58 -78.03, -86.33 121.95 87.93 65
10 05/21/2018 07:19:37 77.60, 83.47 57.76 05/21/2018 07:19:44 77.58, 83.37 57.74 3.08 7
11 05/23/2018 12:53:20 -77.60,-179.93 122.68 05/23/2018 12:53:24 -77.60, 179.90 122.69 3.95 4
12 05/25/2018 18:27:01 77.62, -83.32 56.93 05/25/2018 18:26:56 77.59, -83.33 56.90 2.93 5




NCC Satellite Simultaneous Nadir Overpasses (SNOs) Prediction Service
